Hourly Weather Hommersak

Today, 11 May, Tuesday

Time Temperature Precipitation Wind Pressure Humidity
00:00 +7°C° 0 mm 6 mps 751 mmHg 92%
01:00 +7°C° 0 mm 6 mps 752 mmHg 92%
02:00 +7°C° 0 mm 6 mps 752 mmHg 92%
03:00 +7°C° 0 mm 6 mps 753 mmHg 93%
04:00 +8°C° 0 mm 5 mps 753 mmHg 90%
05:00 +9°C° 0 mm 5 mps 753 mmHg 88%
06:00 +9°C° 0 mm 5 mps 754 mmHg 85%
07:00 +10°C° 0 mm 5 mps 754 mmHg 79%
08:00 +12°C° 0 mm 5 mps 754 mmHg 72%
09:00 +13°C° 0 mm 5 mps 755 mmHg 66%
10:00 +14°C° 0 mm 5 mps 755 mmHg 62%
11:00 +14°C° 0 mm 4 mps 755 mmHg 58%
12:00 +15°C° 0 mm 4 mps 755 mmHg 55%
13:00 +15°C° 0 mm 4 mps 756 mmHg 55%
14:00 +15°C° 0 mm 4 mps 756 mmHg 55%
15:00 +16°C° 0 mm 3 mps 756 mmHg 56%
16:00 +14°C° 0 mm 3 mps 756 mmHg 60%
17:00 +15°C° 0 mm 2 mps 756 mmHg 64%
18:00 +14°C° 0 mm 1 mps 756 mmHg 68%
19:00 +13°C° 0 mm 1 mps 756 mmHg 74%
20:00 +12°C° 0 mm 1 mps 756 mmHg 79%
21:00 +10°C° 0 mm 1 mps 756 mmHg 84%
22:00 +9°C° 0 mm 2 mps 756 mmHg 82%
23:00 +9°C° 0 mm 2 mps 756 mmHg 81%

Tomorrow, 12 May, Wednesday

Time Temperature Precipitation Wind Pressure Humidity
00:00 +9°C° 0 mm 2 mps 756 mmHg 79%
01:00 +9°C° 0 mm 2 mps 755 mmHg 79%
02:00 +9°C° 0 mm 2 mps 755 mmHg 79%
03:00 +8°C° 0 mm 2 mps 755 mmHg 79%
04:00 +9°C° 0 mm 2 mps 755 mmHg 75%
05:00 +10°C° 0 mm 2 mps 754 mmHg 71%
06:00 +12°C° 0 mm 2 mps 754 mmHg 67%
07:00 +13°C° 0 mm 2 mps 754 mmHg 63%
08:00 +14°C° 0 mm 2 mps 754 mmHg 59%
09:00 +15°C° 0 mm 2 mps 754 mmHg 55%
10:00 +16°C° 0 mm 3 mps 754 mmHg 52%
11:00 +16°C° 0 mm 3 mps 753 mmHg 50%
12:00 +17°C° 0 mm 4 mps 753 mmHg 48%
13:00 +17°C° 0 mm 4 mps 753 mmHg 49%
14:00 +17°C° 0 mm 4 mps 753 mmHg 49%
15:00 +17°C° 0 mm 4 mps 753 mmHg 50%
16:00 +15°C° 0 mm 4 mps 754 mmHg 55%
17:00 +14°C° 0 mm 4 mps 754 mmHg 60%
18:00 +13°C° 0 mm 4 mps 754 mmHg 65%
19:00 +11°C° 0 mm 4 mps 754 mmHg 72%
20:00 +10°C° 0 mm 3 mps 754 mmHg 78%
21:00 +9°C° 0 mm 3 mps 755 mmHg 85%
22:00 +9°C° 0 mm 3 mps 755 mmHg 84%
23:00 +9°C° 0 mm 3 mps 755 mmHg 84%

Day after tomorrow, 13 May, Thursday

Time Temperature Precipitation Wind Pressure Humidity
00:00 +8°C° 0 mm 2 mps 755 mmHg 83%
01:00 +8°C° 0 mm 2 mps 755 mmHg 85%
02:00 +8°C° 0 mm 2 mps 754 mmHg 86%
03:00 +8°C° 0 mm 2 mps 754 mmHg 88%
04:00 +9°C° 0 mm 2 mps 754 mmHg 83%
05:00 +10°C° 0 mm 2 mps 754 mmHg 79%
06:00 +12°C° 0 mm 2 mps 754 mmHg 74%
07:00 +12°C° 0 mm 3 mps 754 mmHg 68%
08:00 +13°C° 0 mm 3 mps 754 mmHg 62%
09:00 +16°C° 0 mm 3 mps 754 mmHg 56%
10:00 +16°C° 0 mm 3 mps 754 mmHg 54%
11:00 +17°C° 0 mm 3 mps 753 mmHg 53%
12:00 +17°C° 0 mm 3 mps 753 mmHg 51%
13:00 +17°C° 0 mm 3 mps 753 mmHg 52%
14:00 +17°C° 0 mm 3 mps 753 mmHg 53%
15:00 +17°C° 0 mm 3 mps 752 mmHg 53%
16:00 +16°C° 0 mm 3 mps 752 mmHg 57%
17:00 +16°C° 0 mm 3 mps 752 mmHg 60%
18:00 +14°C° 0 mm 3 mps 752 mmHg 64%
19:00 +14°C° 0 mm 2 mps 752 mmHg 68%
20:00 +13°C° 0 mm 2 mps 752 mmHg 73%
21:00 +12°C° 0 mm 2 mps 752 mmHg 78%
22:00 +13°C° 0 mm 2 mps 752 mmHg 77%
23:00 +13°C° 0 mm 1 mps 752 mmHg 76%

14 May, Friday

Time Temperature Precipitation Wind Pressure Humidity
00:00 +13°C° 0 mm 1 mps 751 mmHg 75%
01:00 +13°C° 0 mm 1 mps 751 mmHg 76%
02:00 +13°C° 0 mm 1 mps 751 mmHg 77%
03:00 +13°C° 0 mm 1 mps 751 mmHg 77%
04:00 +13°C° 0.3 mm 1 mps 751 mmHg 80%
05:00 +13°C° 0.3 mm 1 mps 751 mmHg 83%
06:00 +14°C° 0.3 mm 1 mps 751 mmHg 85%
07:00 +15°C° 0.2 mm 1 mps 751 mmHg 80%
08:00 +15°C° 0.2 mm 1 mps 752 mmHg 76%
09:00 +16°C° 0.2 mm 1 mps 752 mmHg 71%
10:00 +16°C° 0.1 mm 1 mps 752 mmHg 71%
11:00 +18°C° 0.1 mm 1 mps 752 mmHg 70%
12:00 +18°C° 0.1 mm 1 mps 752 mmHg 70%
13:00 +16°C° 0.1 mm 1 mps 752 mmHg 74%
14:00 +15°C° 0.1 mm 1 mps 752 mmHg 79%
15:00 +14°C° 0.1 mm 1 mps 753 mmHg 84%
16:00 +14°C° 0.2 mm 1 mps 753 mmHg 87%
17:00 +13°C° 0.2 mm 1 mps 753 mmHg 90%
18:00 +13°C° 0.2 mm 1 mps 753 mmHg 94%
19:00 +13°C° 0.2 mm 1 mps 753 mmHg 94%
20:00 +13°C° 0.2 mm 1 mps 753 mmHg 95%
21:00 +12°C° 0.2 mm 1 mps 753 mmHg 96%
22:00 +12°C° 0.2 mm 1 mps 753 mmHg 95%
23:00 +12°C° 0.2 mm 1 mps 752 mmHg 95%

15 May, Saturday

Time Temperature Precipitation Wind Pressure Humidity
00:00 +12°C° 0.2 mm 1 mps 752 mmHg 95%
01:00 +12°C° 0 mm 1 mps 752 mmHg 95%
02:00 +12°C° 0 mm 1 mps 752 mmHg 95%
03:00 +12°C° 0 mm 1 mps 752 mmHg 95%
04:00 +12°C° 0 mm 1 mps 752 mmHg 93%
05:00 +13°C° 0 mm 1 mps 752 mmHg 91%
06:00 +13°C° 0 mm 1 mps 752 mmHg 89%
07:00 +13°C° 0 mm 1 mps 752 mmHg 88%
08:00 +14°C° 0 mm 2 mps 752 mmHg 86%
09:00 +14°C° 0 mm 2 mps 752 mmHg 84%
10:00 +14°C° 0 mm 2 mps 752 mmHg 85%
11:00 +13°C° 0 mm 2 mps 752 mmHg 86%
12:00 +13°C° 0 mm 1 mps 753 mmHg 86%
13:00 +13°C° 0 mm 2 mps 753 mmHg 84%
14:00 +13°C° 0 mm 2 mps 753 mmHg 81%
15:00 +13°C° 0 mm 3 mps 753 mmHg 79%
16:00 +13°C° 0 mm 2 mps 753 mmHg 80%
17:00 +12°C° 0 mm 2 mps 752 mmHg 81%
18:00 +12°C° 0 mm 2 mps 752 mmHg 83%
19:00 +10°C° 0 mm 2 mps 753 mmHg 84%
20:00 +10°C° 0 mm 2 mps 753 mmHg 86%
21:00 +9°C° 0 mm 2 mps 753 mmHg 87%
22:00 +9°C° 0 mm 2 mps 753 mmHg 87%
23:00 +10°C° 0 mm 1 mps 753 mmHg 87%

16 May, Sunday

Time Temperature Precipitation Wind Pressure Humidity
00:00 +9°C° 0 mm 1 mps 753 mmHg 88%
01:00 +9°C° 0 mm 1 mps 753 mmHg 87%
02:00 +9°C° 0 mm 1 mps 753 mmHg 87%
03:00 +9°C° 0 mm 1 mps 752 mmHg 86%
04:00 +8°C° 0 mm 2 mps 752 mmHg 83%
05:00 +8°C° 0 mm 2 mps 752 mmHg 80%
06:00 +9°C° 0 mm 2 mps 752 mmHg 76%
07:00 +10°C° 0 mm 2 mps 752 mmHg 73%
08:00 +10°C° 0 mm 2 mps 752 mmHg 70%
09:00 +11°C° 0 mm 3 mps 752 mmHg 67%
10:00 +11°C° 0 mm 3 mps 752 mmHg 68%
11:00 +11°C° 0 mm 3 mps 752 mmHg 69%
12:00 +11°C° 0 mm 3 mps 752 mmHg 70%
13:00 +11°C° 0 mm 3 mps 752 mmHg 71%
14:00 +11°C° 0 mm 3 mps 751 mmHg 71%
15:00 +11°C° 0 mm 3 mps 751 mmHg 72%
16:00 +10°C° 0 mm 3 mps 751 mmHg 73%
17:00 +10°C° 0 mm 3 mps 751 mmHg 74%
18:00 +10°C° 0 mm 3 mps 750 mmHg 75%
19:00 +10°C° 0.4 mm 3 mps 750 mmHg 80%
20:00 +9°C° 0.4 mm 2 mps 750 mmHg 85%
21:00 +9°C° 0.4 mm 2 mps 750 mmHg 91%
22:00 +9°C° 0.6 mm 2 mps 750 mmHg 92%
23:00 +8°C° 0.6 mm 2 mps 750 mmHg 93%
Show more

We Need Your Consent

Meteoprog and our Service Providers may store and access personal data such as cookies, device identifiers or other similar technologies on your device and process such data to personalise content and ads, as well as provide social media features and to analyse the traffic.

  • Store and/or access information on your device

    Cookies, device identifiers or other information can be stored or accessed on your device for the purposes indicated above.

  • Personalised ads and content, ad and content measurement, audience insights, and products development

    Ads and content can be personalised based on a profile. More data can be added to better personalise ads and content. Ad and content performance can be measured. Insights about the audience who saw the ads and content can be derived. Such data can be used to develop or improve user’s experience, systems and software.

By clicking ‘I Agree’ you will allow the use of indicated cookies, device identifiers, web beacons or other similar technologies. Your settings can be changed in the browser on your device.

For certain purposes, legitimate interests may be relied on, rather than consent. You can read more about this in our Privacy and Cookie Policy.